Weather History for Baker, MT

Change the Weather History Date:

Tuesday, October 15, 2013

  Actual Average Record
Temperature  
Mean Temperature 40 °F -  
Max Temperature 48 °F 81 °F 77 °F (2010)
Min Temperature 32 °F 29 °F 21 °F (2001)
Degree Days  
Heating Degree Days 25    
Moisture  
Dew Point 30 °F    
Average Humidity 78    
Maximum Humidity 100    
Minimum Humidity 38    
Precipitation  
Precipitation 0.00 in - - ()
Sea Level Pressure  
Sea Level Pressure 30.28 in    
Wind  
Wind Speed 10 mph (WNW)    
Max Wind Speed 14 mph    
Max Gust Speed 21 mph    
Visibility 10 miles    
Events      
Averages and records for this station are not official NWS values.
T = Trace of Precipitation, MM = Missing Value Source: NWS Daily Summary

Daily Weather History Graph

Daily Weather History Graph

Search for Another Location

Airport:

Trip Planner

Search our weather history database for the weather conditions in past years. The results will help you decide how hot, cold, wet, or windy it might be!

Date:

Astronomy

Oct. 15, 2013 Rise Set
Actual Time 7:14 AM MDT 6:09 PM MDT
Civil Twilight 6:44 AM MDT 6:40 PM MDT
Nautical Twilight 6:09 AM MDT 7:15 PM MDT
Astronomical Twilight 5:34 AM MDT 7:49 PM MDT
Moon 4:25 PM MDT (10/15) 3:29 AM MDT (10/15)
Length of Visible Light 11h 55m
Length of Day
10h 55m
Waxing Gibbous, 88% of the Moon is Illuminated
Oct 15
Waxing Gibbous
Oct 18
Full
Oct 26
Last Quarter
Nov 3
New
Nov 9
First Quarter

Hourly Weather History & Observations

Time (MDT) Temp. Windchill Dew Point Humidity Pressure Visibility Wind Dir Wind Speed Gust Speed Precip Events Conditions
12:12 AM 33.8 °F 24.3 °F 33.8 °F 100% 30.28 in 8.0 mi NW 13.8 mph - 0.00 in   Overcast
12:28 AM 33.8 °F 25.3 °F 33.8 °F 100% 30.28 in 8.0 mi NW 11.5 mph - 0.00 in   Overcast
12:51 AM 34.0 °F 25.0 °F 34.0 °F 100% 30.35 in 9.0 mi NW 12.7 mph - 0.00 in   Overcast
1:04 AM 35.6 °F 27.1 °F 33.8 °F 93% 30.28 in 10.0 mi NW 12.7 mph - 0.00 in   Overcast
1:13 AM 35.6 °F 28.0 °F 33.8 °F 93% 30.28 in 10.0 mi NW 10.4 mph - 0.00 in   Overcast
1:45 AM 35.6 °F 27.5 °F 33.8 °F 93% 30.28 in 10.0 mi NW 11.5 mph - 0.00 in   Overcast
1:51 AM 35.1 °F 27.4 °F 34.0 °F 96% 30.35 in 10.0 mi NW 10.4 mph - 0.00 in   Overcast
2:51 AM 35.1 °F 27.9 °F 34.0 °F 96% 30.35 in 10.0 mi NW 9.2 mph - N/A   Overcast
3:51 AM 35.1 °F 29.3 °F 33.1 °F 92% 30.34 in 10.0 mi WNW 6.9 mph - N/A   Overcast
4:51 AM 34.0 °F 28.0 °F 34.0 °F 100% 30.34 in 10.0 mi West 6.9 mph - N/A   Overcast
5:51 AM 34.0 °F 28.0 °F 33.1 °F 96% 30.34 in 10.0 mi WNW 6.9 mph - N/A   Overcast
6:51 AM 33.1 °F 26.9 °F 33.1 °F 100% 30.35 in 10.0 mi West 6.9 mph - N/A   Mostly Cloudy
7:51 AM 32.0 °F 26.4 °F 30.9 °F 96% 30.36 in 10.0 mi WNW 5.8 mph - N/A   Clear
8:51 AM 33.1 °F 26.9 °F 30.9 °F 92% 30.37 in 10.0 mi WNW 6.9 mph - N/A   Clear
9:51 AM 36.0 °F 29.6 °F 32.0 °F 86% 30.36 in 10.0 mi WNW 8.1 mph - N/A   Clear
10:51 AM 41.0 °F 35.2 °F 33.1 °F 73% 30.35 in 10.0 mi WNW 9.2 mph - N/A   Clear
11:51 AM 45.0 °F 38.5 °F - N/A% 30.32 in 10.0 mi NNW 13.8 mph - N/A   Unknown
12:51 PM 46.0 °F 40.2 °F 27.0 °F 47% 30.30 in 10.0 mi NNW 12.7 mph - N/A   Clear
1:51 PM 46.9 °F - 26.1 °F 44% 30.27 in 10.0 mi NW 5.8 mph - N/A   Clear
2:51 PM 48.9 °F - 25.0 °F 39% 30.25 in 10.0 mi NNW 9.2 mph 20.7 mph N/A   Clear
3:51 PM 48.9 °F - 25.0 °F 39% 30.23 in 10.0 mi NW 12.7 mph 18.4 mph N/A   Clear
4:51 PM 48.9 °F - 24.1 °F 38% 30.21 in 10.0 mi WNW 11.5 mph - N/A   Clear
5:51 PM 45.0 °F 41.2 °F 25.0 °F 46% 30.20 in 10.0 mi WNW 6.9 mph - N/A   Clear
6:51 PM 37.9 °F 32.7 °F 26.1 °F 62% 30.22 in 10.0 mi West 6.9 mph - N/A   Clear
7:51 PM 36.0 °F - 26.1 °F 67% 30.21 in 10.0 mi Calm Calm - N/A   Clear
8:51 PM 33.1 °F 28.7 °F 26.1 °F 75% 30.21 in 10.0 mi SW 4.6 mph - N/A   Clear
9:51 PM 35.1 °F 32.2 °F 27.0 °F 72% 30.19 in 10.0 mi West 3.5 mph - N/A   Clear
10:51 PM 34.0 °F - 27.0 °F 75% 30.17 in 10.0 mi Calm Calm - N/A   Clear
11:51 PM 34.0 °F 26.6 °F 26.1 °F 73% 30.14 in 10.0 mi SW 9.2 mph - N/A   Clear